Location: Newark
(51.2000°N, 58.6167°E)
Time: 12:54:02
(UTC+00:00)

Envisat - Pass Details

Date: 09 October 2020
Orbit: 764 x 766 km, 98.1° (Epoch: 26 October)

Event Time Altitude Azimuth Distance (km) Brightness Sun altitude
Rises 14:25:49 0° 207° (SSW) 3,222 6.6 -10.3°
Reaches altitude 10° 14:28:43 10° 224° (SW) 2,301 6.1 -10.8°
Maximum altitude 14:32:24 20° 271° (W) 1,719 6.0 -11.4°
Drops below altitude 10° 14:36:07 10° 318° (NW) 2,313 6.2 -11.9°
Sets 14:39:03 0° 335° (NNW) 3,245 6.7 -12.4°
